Stations météo

réclame
Mon MeteoGroup
Kiel/Holtenau (AWS), Allemagne (10046): Température de l'air & dewpoint: 13.06.2019 17:00:00 - 19.06.2019 17:00:00 (CEST)Kiel/Holtenau (AWS), Allemagne (10046): Température de l'air 5cm & Température de l'air -5cm: 13.06.2019 17:00:00 - 19.06.2019 17:00:00 (CEST)Kiel/Holtenau (AWS), Allemagne (10046): Température de l'air -20cm & Température de l'air -100cm: 13.06.2019 17:00:00 - 19.06.2019 17:00:00 (CEST)Kiel/Holtenau (AWS), Allemagne (10046): Vitesse du vent & gusts: 13.06.2019 17:00:00 - 19.06.2019 17:00:00 (CEST)Kiel/Holtenau (AWS), Allemagne (10046): Direction du vent: 13.06.2019 17:00:00 - 19.06.2019 17:00:00 (CEST)Kiel/Holtenau (AWS), Allemagne (10046): reduced air pressure: 13.06.2019 17:00:00 - 19.06.2019 17:00:00 (CEST)Kiel/Holtenau (AWS), Allemagne (10046): visibility: 13.06.2019 17:00:00 - 19.06.2019 17:00:00 (CEST)Kiel/Holtenau (AWS), Allemagne (10046): Ensoleillement: 13.06.2019 17:00:00 - 19.06.2019 17:00:00 (CEST)Kiel/Holtenau (AWS), Allemagne (10046): Quantités de précipitations: 13.06.2019 17:00:00 - 19.06.2019 17:00:00 (CEST)
Date & Time tt [°C] td [°C] tt 5cm [°C] tt -5cm [°C] tt -20cm [°C] tt -100cm [°C] ff [km/h] ff [knt] fx [km/h] fx [knt] dd ppp [hPa] vv [km] sd [min] rr [mm]
19.06.2019 17:00:00 26,8 15,0 26,5 26,7 23,0 15,3 12 7 27 15 S 1006,0 29 - 0,0
19.06.2019 16:00:00 26,7 15,5 26,7 27,8 22,8 15,3 12 6 30 16 SSE 1006,3 39 - 0,0
19.06.2019 15:00:00 28,2 16,0 28,6 31,7 22,2 15,3 14 7 23 12 SSE 1007,0 20 - 0,0
19.06.2019 14:00:00 28,0 18,0 31,2 32,6 21,3 15,3 11 6 22 12 ESE 1007,5 13 - 0,0
19.06.2019 13:00:00 25,4 18,3 28,6 30,8 20,5 15,3 13 7 22 12 E 1008,0 16 - 0,0
19.06.2019 12:00:00 23,2 16,3 26,0 28,9 19,7 15,2 15 8 20 11 ENE 1008,5 19 - 0,0
19.06.2019 11:00:00 21,9 16,0 24,7 26,9 19,0 15,2 14 8 20 11 ENE 1009,3 9 - 0,0
19.06.2019 10:00:00 20,1 15,5 23,2 24,8 18,4 15,2 14 8 19 10 NE 1009,6 15 - 0,0
19.06.2019 09:00:00 19,5 16,2 21,0 22,0 18,1 15,2 12 6 16 8 ENE 1009,7 19 - 0,0
19.06.2019 08:00:00 19,1 16,4 19,7 19,6 17,8 15,2 7 4 25 14 NNE 1010,2 20 - 0,0
19.06.2019 07:00:00 18,4 15,4 18,0 18,4 17,8 15,2 3 2 8 4 SE 1010,0 21 - 0,0
19.06.2019 06:00:00 16,9 15,9 16,5 16,3 18,0 15,2 5 3 8 4 E 1010,3 12 - 0,0
19.06.2019 05:00:00 15,8 15,3 14,5 15,3 18,2 15,2 5 3 7 4 E 1010,7 7 - 0,0
19.06.2019 04:00:00 15,5 15,2 13,9 15,7 18,6 15,2 4 2 5 3 ENE 1011,3 8 - 0,0
19.06.2019 03:00:00 15,5 15,3 14,2 15,8 18,9 15,1 5 3 6 4 E 1011,7 11 - 0,0
19.06.2019 02:00:00 14,9 14,8 13,5 16,3 19,3 15,1 3 2 5 3 N 1012,1 0,2 - 0,0
19.06.2019 01:00:00 15,5 15,2 14,7 17,1 19,7 15,1 3 2 6 4 N 1012,7 5 - 0,0
19.06.2019 00:00:00 16,4 15,8 15,9 17,9 20,1 15,1 0 0 6 3 N 1013,0 8 - 0,0
18.06.2019 23:00:00 16,8 16,1 16,2 18,6 20,5 15,1 3 2 16 9 NNE 1013,1 14 - 0,0
18.06.2019 22:00:00 17,7 16,2 17,0 19,4 20,8 15,1 8 4 18 10 SE 1013,6 17 - 2,5
18.06.2019 21:00:00 18,3 16,1 17,9 20,1 21,2 15,1 8 4 28 15 E 1012,9 17 - 4,0
18.06.2019 20:00:00 18,7 16,4 18,5 21,2 21,7 15,1 7 4 17 9 N 1013,2 26 - 0,2
18.06.2019 19:00:00 17,2 15,4 16,7 20,5 22,1 15,1 10 5 49 26 NE 1013,9 9 - 6,1
18.06.2019 18:00:00 22,3 16,6 22,7 25,0 22,2 15,1 4 2 21 12 NE 1013,1 40 - 0,0
18.06.2019 17:00:00 21,7 14,5 18,7 24,2 22,4 15,1 11 6 28 15 SE 1014,0 13 - 0,5
18.06.2019 16:00:00 26,8 15,4 27,5 28,8 22,0 15,1 10 5 31 17 S 1013,8 33 - 0,0
18.06.2019 15:00:00 27,7 15,6 30,0 32,0 21,3 15,1 10 5 27 15 SSE 1014,3 10 - 0,0
18.06.2019 14:00:00 26,8 15,7 29,7 31,5 20,5 15,1 11 6 22 12 SSE 1015,0 21 - 0,0
18.06.2019 13:00:00 26,5 15,1 29,2 30,6 19,7 15,1 9 5 21 11 S 1015,4 23 - 0,0
18.06.2019 12:00:00 25,1 15,7 28,3 28,6 18,9 15,0 9 5 17 9 SSE 1015,9 24 - 0,0
18.06.2019 11:00:00 24,0 15,7 25,9 26,9 18,2 15,0 10 5 18 10 SSE 1016,1 15 - 0,0
18.06.2019 10:00:00 22,1 15,6 23,8 23,4 17,7 15,0 8 4 18 10 S 1016,5 12 - 0,0
18.06.2019 09:00:00 20,6 15,0 22,3 21,3 17,3 15,0 7 4 15 8 SSE 1016,7 18 - 0,0
18.06.2019 08:00:00 19,5 14,8 20,5 19,1 17,1 15,0 8 4 16 8 S 1017,0 9 - 0,0
18.06.2019 07:00:00 18,0 14,3 18,5 16,6 17,2 15,0 8 5 17 9 S 1017,2 24 - 0,0
18.06.2019 06:00:00 17,2 14,1 16,7 15,1 17,4 15,0 6 3 15 8 SSE 1017,4 23 - 0,0
18.06.2019 05:00:00 16,9 14,2 15,6 14,7 17,6 15,0 9 5 18 10 SSE 1017,7 24 - 0,0
18.06.2019 04:00:00 16,9 14,3 15,4 14,9 17,9 15,0 7 4 17 9 SSE 1018,1 29 - 0,0
18.06.2019 03:00:00 17,2 14,2 15,7 15,1 18,3 15,0 7 4 16 9 SE 1018,6 34 - 0,0
18.06.2019 02:00:00 17,3 13,9 15,5 15,3 18,7 15,0 6 3 16 9 SSE 1018,8 46 - 0,0
18.06.2019 01:00:00 17,2 12,7 15,1 15,6 19,2 15,0 5 3 11 6 S 1019,0 33 - 0,0
18.06.2019 00:00:00 17,2 12,8 14,4 16,4 19,6 15,0 3 2 8 5 S 1019,2 50 - 0,0
17.06.2019 23:00:00 17,3 14,1 13,9 17,4 20,1 15,0 0 0 10 6 N 1019,3 38 - 0,0
17.06.2019 22:00:00 19,5 14,7 17,6 18,8 20,6 14,9 4 2 13 7 ESE 1019,4 51 - 0,0
17.06.2019 21:00:00 21,0 15,4 19,6 20,4 20,9 14,9 8 4 15 8 E 1019,4 53 - 0,0
17.06.2019 20:00:00 21,6 15,2 21,0 22,6 21,0 14,9 10 5 20 11 ENE 1019,7 43 - 0,0
17.06.2019 19:00:00 21,6 14,3 21,5 23,4 21,1 14,9 13 7 21 12 ENE 1020,0 50 - 0,0
17.06.2019 18:00:00 22,2 14,2 22,5 25,4 21,0 14,9 16 9 21 11 ENE 1020,3 17 - 0,0
17.06.2019 17:00:00 21,3 14,1 21,6 23,4 20,9 14,9 13 7 20 11 E 1020,8 22 - 0,0
17.06.2019 16:00:00 22,0 14,0 23,5 26,2 20,5 14,9 13 7 20 11 ENE 1021,2 28 - 0,0
17.06.2019 15:00:00 22,6 12,0 23,5 26,8 20,0 14,9 5 3 17 9 SW 1021,3 48 - 0,0
17.06.2019 14:00:00 22,9 13,7 25,7 25,5 19,5 14,9 9 5 19 11 W 1021,4 70 - 0,0
17.06.2019 13:00:00 21,2 12,5 22,3 24,5 19,1 14,9 12 6 21 11 W 1021,6 47 - 0,0
17.06.2019 12:00:00 20,9 12,8 22,9 25,3 18,5 14,9 11 6 24 13 W 1021,9 45 - 0,0
17.06.2019 11:00:00 21,9 13,5 24,7 26,9 17,6 14,9 13 7 28 15 WSW 1021,9 17 - 0,0
17.06.2019 10:00:00 20,4 12,3 22,5 24,3 16,9 14,9 14 8 29 16 SW 1022,0 9 - 0,0
17.06.2019 09:00:00 19,8 12,7 21,9 21,3 16,4 14,9 11 6 19 11 SSW 1021,8 13 - 0,0
17.06.2019 08:00:00 18,0 13,4 19,9 18,1 16,1 14,9 9 5 19 10 SW 1021,7 9 60 0,0
17.06.2019 07:00:00 15,6 12,4 16,2 15,4 16,2 14,9 5 3 9 5 S 1021,6 10 - 0,0
17.06.2019 06:00:00 13,6 13,2 12,9 12,7 16,5 14,9 4 2 6 3 S 1021,5 6 45 0,0
17.06.2019 05:00:00 12,6 12,4 9,1 12,5 16,9 14,9 4 2 6 4 S 1021,5 5 0 0,0
17.06.2019 04:00:00 12,6 12,3 9,3 13,1 17,3 14,9 3 2 8 4 SSW 1021,5 3,6 0 0,0
17.06.2019 03:00:00 12,9 12,7 10,8 13,8 17,8 14,8 5 3 10 5 WSW 1021,3 1,1 0 0,0
17.06.2019 02:00:00 13,4 13,2 11,1 14,6 18,2 14,8 3 2 6 3 WSW 1021,4 4,3 0 0,0
17.06.2019 01:00:00 14,4 13,7 11,7 15,5 18,6 14,8 3 2 9 5 SW 1021,2 12 0 0,0
17.06.2019 00:00:00 15,6 14,1 15,1 16,9 18,9 14,8 5 3 10 5 W 1021,2 17 0 0,0
16.06.2019 23:00:00 15,3 14,4 15,3 17,4 19,3 14,8 6 4 9 5 W 1020,9 14 0 0,0
16.06.2019 22:00:00 15,9 14,0 15,5 17,8 19,7 14,8 6 3 9 5 SSE 1020,4 23 0 0,0
16.06.2019 21:00:00 16,1 14,2 16,0 18,5 20,1 14,8 5 3 16 8 NNW 1020,2 25 0 0,0
16.06.2019 20:00:00 15,9 13,9 16,0 18,9 20,6 14,8 15 8 31 17 N 1020,2 25 0 0,0
16.06.2019 19:00:00 19,4 13,6 19,6 22,1 20,8 14,8 5 3 16 8 NE 1019,7 52 0 0,0
16.06.2019 18:00:00 21,0 11,2 21,3 24,1 20,8 14,8 7 4 14 8 S 1019,4 46 6 0,0
16.06.2019 17:00:00 21,7 10,7 22,3 25,9 20,5 14,8 5 3 18 10 SW 1019,7 51 28 0,0
16.06.2019 16:00:00 21,6 11,0 24,5 28,6 20,0 14,8 6 4 18 10 S 1019,9 19 42 0,0
16.06.2019 15:00:00 20,3 11,1 22,2 25,3 19,6 14,8 10 5 27 14 W 1019,9 35 38 0,0
16.06.2019 14:00:00 19,9 12,4 22,1 24,7 19,2 14,8 13 7 22 12 WNW 1019,8 25 - 0,0
16.06.2019 13:00:00 19,6 12,3 21,7 24,9 18,6 14,8 15 8 26 14 W 1019,3 33 - 0,0
16.06.2019 12:00:00 20,5 13,0 24,1 27,8 17,7 14,8 13 7 25 14 WSW 1019,3 19 49 0,0
16.06.2019 11:00:00 18,5 12,2 21,7 24,6 17,1 14,8 11 6 19 10 W 1018,8 14 - 0,0
16.06.2019 10:00:00 17,4 11,4 19,6 22,2 16,4 14,8 9 5 20 11 W 1018,7 29 41 0,0
16.06.2019 09:00:00 16,8 12,6 19,7 20,6 15,9 14,8 11 6 20 11 W 1018,4 13 54 0,0
16.06.2019 08:00:00 14,8 11,8 16,8 16,8 15,8 14,8 10 5 16 9 W 1017,9 13 58 0,0
16.06.2019 07:00:00 13,6 11,7 13,9 14,5 15,8 14,8 10 5 21 11 W 1017,5 16 55 0,0
16.06.2019 06:00:00 13,1 11,9 12,9 13,1 16,1 14,8 9 5 21 12 WSW 1017,2 10 29 0,0
16.06.2019 05:00:00 12,6 12,1 11,7 12,8 16,4 14,8 10 6 20 11 WSW 1016,5 4,8 0 0,0
16.06.2019 04:00:00 13,0 12,2 12,0 13,3 16,8 14,8 11 6 19 10 WSW 1016,2 10 0 0,0
16.06.2019 03:00:00 13,7 12,3 12,5 14,4 17,0 14,8 10 6 21 11 W 1016,2 18 0 0,0
16.06.2019 02:00:00 14,5 12,7 14,3 15,2 17,3 14,8 10 5 23 12 W 1015,8 31 0 0,0
16.06.2019 01:00:00 14,9 12,8 14,7 15,5 17,6 14,8 14 8 36 19 W 1015,6 33 0 0,0
16.06.2019 00:00:00 15,2 12,7 15,0 15,8 17,8 14,8 17 9 41 22 W 1015,1 52 0 0,0
15.06.2019 23:00:00 15,4 13,8 15,3 16,7 18,1 14,8 23 13 41 22 W 1014,2 15 0 0,0
15.06.2019 22:00:00 17,0 15,2 16,8 17,7 18,3 14,8 14 8 35 19 WSW 1012,4 13 0 0,0
15.06.2019 21:00:00 18,1 15,6 18,0 18,8 18,3 14,8 14 8 28 15 W 1011,5 48 16 0,0
15.06.2019 20:00:00 20,3 16,4 19,4 21,1 18,1 14,8 10 5 27 14 WSW 1011,8 24 - 0,0
15.06.2019 19:00:00 19,6 16,4 19,2 21,0 17,9 14,8 15 8 29 15 WSW 1012,0 20 10 0,0
15.06.2019 18:00:00 18,2 17,0 18,0 19,7 17,7 14,7 5 3 14 7 SSE 1010,9 12 0 0,0
15.06.2019 17:00:00 18,5 17,0 18,1 19,7 17,5 14,7 6 3 17 9 SW 1010,3 15 0 0,1
15.06.2019 16:00:00 18,4 16,8 18,3 19,7 17,2 14,7 6 3 24 13 SSE 1009,8 7 0 0,3
15.06.2019 15:00:00 18,7 15,3 19,3 19,3 17,0 14,7 14 8 29 16 E 1009,7 25 0 0,0
15.06.2019 14:00:00 16,7 12,8 15,5 16,4 17,1 14,7 17 9 40 21 NE 1010,1 29 0 7,6
15.06.2019 13:00:00 17,9 14,5 15,7 16,4 17,2 14,7 18 10 48 26 ESE 1009,4 13 0 0,6
15.06.2019 12:00:00 18,3 13,6 15,7 16,4 17,3 14,7 19 10 44 24 ESE 1008,6 10 0 0,2
15.06.2019 11:00:00 19,0 14,2 16,8 16,7 17,4 14,7 22 12 40 22 E 1008,8 23 0 0,9
15.06.2019 10:00:00 17,4 16,7 16,7 16,8 17,4 14,7 18 10 27 15 E 1010,5 3,8 - 3,7
15.06.2019 09:00:00 16,8 16,4 16,4 16,9 17,5 14,6 6 4 12 7 E 1011,7 3,6 0 1,1
15.06.2019 08:00:00 16,8 16,4 16,5 17,0 17,6 14,6 6 3 17 9 ENE 1011,7 4,3 0 0,7
15.06.2019 07:00:00 16,9 16,0 16,6 16,8 17,7 14,6 8 5 14 7 E 1012,0 7 0 0,0
15.06.2019 06:00:00 16,7 15,7 16,3 16,5 17,8 14,6 9 5 16 8 ENE 1012,0 7 0 0,0
15.06.2019 05:00:00 16,5 15,6 16,0 16,4 18,0 14,6 11 6 20 11 NE 1012,1 8 0 0,0
15.06.2019 04:00:00 16,6 15,3 16,0 16,2 18,3 14,6 14 8 20 11 ENE 1012,8 10 0 0,0
15.06.2019 03:00:00 17,1 15,4 16,0 16,2 18,6 14,6 16 8 21 12 E 1014,0 14 0 0,0
15.06.2019 02:00:00 16,5 15,5 15,4 16,3 19,0 14,6 12 7 21 11 NE 1014,3 8 0 0,0
15.06.2019 01:00:00 16,1 15,3 15,0 16,7 19,4 14,6 9 5 13 7 NE 1015,1 8 0 0,0
15.06.2019 00:00:00 16,3 15,3 15,5 17,7 19,9 14,6 8 5 13 7 ENE 1015,7 16 0 0,1
14.06.2019 23:00:00 16,8 14,7 16,0 18,1 20,3 14,6 11 6 17 9 NE 1015,9 35 0 0,0
14.06.2019 22:00:00 17,6 15,8 - 19,6 20,7 14,6 6 4 12 6 NNE 1015,6 25 - 0,0
14.06.2019 21:00:00 19,1 16,6 - 21,5 20,9 14,6 7 4 9 5 ENE 1015,4 28 57 0,0
14.06.2019 20:00:00 22,4 17,4 - 23,8 20,9 14,6 2 1 8 4 SSE 1015,6 26 48 0,0
14.06.2019 19:00:00 19,8 16,4 - 24,6 20,9 14,6 5 3 39 21 S 1015,9 38 32 7,9
14.06.2019 18:00:00 23,0 15,6 - 24,6 20,9 14,5 4 2 20 11 W 1015,5 57 21 0,0
14.06.2019 17:00:00 21,1 15,0 - 25,3 20,7 14,5 10 5 31 17 ESE 1015,1 39 25 0,2
14.06.2019 16:00:00 22,1 14,6 - 26,7 20,5 14,5 16 9 40 21 SSE 1015,7 17 31 0,8
14.06.2019 15:00:00 23,4 12,8 - 25,3 20,2 14,5 7 4 29 16 SE 1016,1 64 11 0,0
14.06.2019 14:00:00 23,7 11,5 - 26,9 19,8 14,5 14 8 32 17 SE 1015,9 64 35 0,0
14.06.2019 13:00:00 24,1 11,0 - 27,9 19,1 14,5 14 7 29 16 SSE 1016,4 13 55 0,0
14.06.2019 12:00:00 23,3 11,4 - 27,1 18,3 14,5 13 7 32 17 SSE 1016,8 16 49 0,0
14.06.2019 11:00:00 22,5 11,6 - 26,1 17,5 14,5 9 5 19 11 S 1017,1 47 58 0,0
14.06.2019 10:00:00 20,3 - 22,1 23,4 16,8 14,5 8 5 16 8 S 1017,3 - 44 -
14.06.2019 09:00:00 19,0 - 21,0 21,1 16,3 14,5 8 5 15 8 S 1017,0 - - -
14.06.2019 08:00:00 16,7 - 18,8 17,6 16,2 14,5 7 4 16 9 S 1016,5 - - -
14.06.2019 07:00:00 14,1 - 13,5 14,1 16,3 14,5 6 3 10 5 SE 1016,0 - - -
14.06.2019 06:00:00 13,7 - 12,6 13,4 16,6 14,5 5 3 10 5 SSE 1016,0 - - -
14.06.2019 05:00:00 13,1 - 10,5 13,2 16,9 14,4 4 2 7 4 SE 1015,8 - - -
14.06.2019 04:00:00 14,1 - 13,3 14,2 17,3 14,4 5 3 10 5 SE 1015,7 - - -
14.06.2019 03:00:00 14,2 - 13,4 14,6 17,6 14,4 5 3 9 5 S 1015,4 - - -
14.06.2019 02:00:00 14,0 - 12,1 14,2 18,1 14,4 5 3 8 5 SSE 1015,1 - - -
14.06.2019 01:00:00 13,0 - 11,0 14,8 18,6 14,4 0 0 32 17 N 1015,1 - - -
14.06.2019 00:00:00 15,6 - 14,4 15,6 19,1 14,4 10 6 30 16 WSW 1014,9 - - -
13.06.2019 23:00:00 16,0 - 13,1 16,8 19,7 14,4 3 2 10 5 SSE 1013,7 - - -
13.06.2019 22:00:00 17,3 - 15,5 17,9 20,1 14,4 9 5 13 7 E 1013,5 - - -
13.06.2019 21:00:00 19,1 - 18,6 20,0 20,5 14,4 9 5 12 6 E 1013,1 - - -
13.06.2019 20:00:00 20,7 - 19,7 22,5 20,7 14,4 3 2 35 19 NNE 1012,7 - - -
13.06.2019 19:00:00 21,1 - 19,4 22,2 20,9 14,4 8 4 33 18 SW 1013,0 - - -
13.06.2019 18:00:00 23,1 - 23,8 26,1 20,7 14,4 13 7 31 17 W 1012,4 - - -
13.06.2019 17:00:00 23,1 - 24,2 26,9 20,3 14,4 17 9 38 21 SW 1012,4 - - -

tt = Température de l'air
td = dewpoint
tt 5cm = Température de l'air 5cm
tt -5cm = Température de l'air -5cm
tt -20cm = Température de l'air -20cm
tt -100cm = Température de l'air -100cm
ff = Vitesse du vent
fx = gusts
dd = Direction du vent
ppp = reduced air pressure
vv = visibility
sd = Ensoleillement
rr = Quantités de précipitations

stations d'obs. à proximité